| time (UTC) | temp F | wind direction | speed knots | gust knots | rain 1hr in | rain 24hr in | rain mn in | humidity % | barometer mb |
| 20260509183031 | 70 | 47 | 3.5 | 7.0 | 0.00 | 0.00 | 0.00 | 45 | 1022.2 |
| 20260509181531 | 68 | 12 | 1.7 | 4.3 | 0.00 | 0.00 | 0.00 | 46 | 1022.3 |
| 20260509174557 | 68 | 359 | 2.6 | 7.8 | 0.00 | 0.00 | 0.00 | 44 | 1022.3 |
| 20260509173031 | 67 | 15 | 1.7 | 6.1 | 0.00 | 0.00 | 0.00 | 45 | 1022.3 |
| 20260509171529 | 66 | 341 | 1.7 | 5.2 | 0.00 | 0.00 | 0.00 | 46 | 1022.4 |
| 20260509170032 | 66 | 345 | 0.9 | 5.2 | 0.00 | 0.00 | 0.00 | 46 | 1022.6 |
| 20260509163031 | 64 | 286 | 0.0 | 2.6 | 0.00 | 0.00 | 0.00 | 49 | 1022.7 |
| 20260509161646 | 63 | 349 | 0.9 | 2.6 | 0.00 | 0.00 | 0.00 | 51 | 1022.9 |
| 20260509160113 | 62 | 6 | 0.0 | 3.5 | 0.00 | 0.00 | 0.00 | 53 | 1022.9 |
| 20260509153030 | 59 | 294 | 0.0 | 1.7 | 0.00 | 0.00 | 0.00 | 57 | 1023.1 |
| 20260509151530 | 58 | 298 | 1.7 | 2.6 | 0.00 | 0.00 | 0.00 | 60 | 1023.2 |
| 20260509150030 | 57 | 21 | 0.0 | 2.6 | 0.00 | 0.00 | 0.00 | 65 | 1023.1 |
| 20260509144531 | 55 | 67 | 0.0 | 0.0 | 0.00 | 0.00 | 0.00 | 73 | 1023.2 |
| 20260509143031 | 52 | 105 | 0.0 | 0.9 | 0.00 | 0.00 | 0.00 | 81 | 1023.3 |
| 20260509141646 | 48 | 135 | 0.0 | 0.0 | 0.00 | 0.00 | 0.00 | 87 | 1023.2 |
| 20260509140029 | 44 | 135 | 0.0 | 0.0 | 0.00 | 0.00 | 0.00 | 90 | 1023.0 |
| 20260509134528 | 39 | 182 | 0.0 | 1.7 | 0.00 | 0.00 | 0.00 | 91 | 1022.9 |
| 20260509133030 | 36 | 198 | 0.0 | 2.6 | 0.00 | 0.00 | 0.00 | 92 | 1022.7 |
| 20260509131531 | 37 | 150 | 0.9 | 5.2 | 0.00 | 0.00 | 0.00 | 92 | 1022.6 |
| 20260509130028 | 37 | 164 | 2.6 | 18.2 | 0.00 | 0.00 | 0.00 | 93 | 1022.3 |
| 20260509124532 | 36 | 212 | 0.9 | 20.0 | 0.00 | 0.00 | 0.00 | 92 | 1022.2 |
| 20260509123106 | 36 | 205 | 0.9 | 3.5 | 0.00 | 0.00 | 0.00 | 92 | 1022.2 |
| 20260509121541 | 37 | 193 | 1.7 | 3.5 | 0.00 | 0.00 | 0.00 | 92 | 1022.2 |
| 20260509120031 | 36 | 189 | 1.7 | 20.9 | 0.00 | 0.00 | 0.00 | 91 | 1022.1 |
| 20260509114606 | 36 | 225 | 0.0 | 6.1 | 0.00 | 0.00 | 0.00 | 91 | 1022.1 |
| 20260509111530 | 37 | 220 | 0.0 | 2.6 | 0.00 | 0.00 | 0.00 | 90 | 1022.3 |
| 20260509110031 | 38 | 145 | 0.0 | 3.5 | 0.00 | 0.00 | 0.00 | 90 | 1022.3 |
| 20260509104531 | 39 | 170 | 0.9 | 4.3 | 0.00 | 0.00 | 0.00 | 89 | 1022.3 |
| 20260509103030 | 40 | 255 | 0.0 | 2.6 | 0.00 | 0.00 | 0.00 | 89 | 1022.4 |
| 20260509101605 | 40 | 188 | 1.7 | 4.3 | 0.00 | 0.00 | 0.00 | 88 | 1022.5 |
| 20260509100032 | 40 | 172 | 0.9 | 4.3 | 0.00 | 0.00 | 0.00 | 87 | 1022.6 |
| 20260509094529 | 41 | 292 | 0.0 | 2.6 | 0.00 | 0.00 | 0.00 | 85 | 1022.7 |
| 20260509093029 | 42 | 212 | 1.7 | 4.3 | 0.00 | 0.00 | 0.00 | 83 | 1022.7 |
| 20260509091604 | 44 | 354 | 0.0 | 2.6 | 0.00 | 0.00 | 0.00 | 82 | 1022.8 |
| 20260509090030 | 45 | 49 | 0.0 | 5.2 | 0.00 | 0.00 | 0.00 | 81 | 1023.0 |
| 20260509084531 | 46 | 148 | 2.6 | 8.7 | 0.00 | 0.00 | 0.00 | 81 | 1023.2 |
| 20260509083033 | 45 | 153 | 3.5 | 7.8 | 0.00 | 0.00 | 0.00 | 81 | 1023.4 |
| 20260509081531 | 46 | 164 | 3.5 | 4.3 | 0.00 | 0.00 | 0.00 | 80 | 1023.6 |
| 20260509080028 | 47 | 159 | 2.6 | 6.1 | 0.00 | 0.00 | 0.00 | 80 | 1023.8 |
| 20260509073031 | 46 | 156 | 4.3 | 8.7 | 0.00 | 0.00 | 0.00 | 82 | 1023.9 |
| 20260509063030 | 51 | 208 | 1.7 | 3.5 | 0.00 | 0.00 | 0.00 | 72 | 1024.2 |
| 20260509061530 | 53 | 250 | 0.9 | 3.5 | 0.00 | 0.00 | 0.00 | 71 | 1024.2 |
| 20260509060032 | 53 | 316 | 1.7 | 5.2 | 0.00 | 0.00 | 0.00 | 71 | 1024.1 |
| 20260509054532 | 53 | 137 | 1.7 | 4.3 | 0.00 | 0.00 | 0.00 | 71 | 1024.2 |
| 20260509053031 | 53 | 272 | 0.9 | 3.5 | 0.00 | 0.00 | 0.00 | 71 | 1024.1 |
| 20260509051529 | 51 | 260 | 0.9 | 6.1 | 0.00 | 0.00 | 0.00 | 72 | 1024.0 |
| 20260509050031 | 51 | 275 | 0.9 | 4.3 | 0.00 | 0.00 | 0.00 | 71 | 1023.9 |
| 20260509043031 | 52 | 248 | 1.7 | 7.0 | 0.00 | 0.00 | 0.00 | 69 | 1023.8 |
| 20260509041530 | 52 | 231 | 1.7 | 6.1 | 0.00 | 0.00 | 0.00 | 67 | 1023.5 |
| 20260509034605 | 54 | 246 | 1.7 | 7.0 | 0.00 | 0.00 | 0.00 | 63 | 1023.2 |
| 20260509031531 | 56 | 257 | 2.6 | 9.6 | 0.00 | 0.00 | 0.00 | 59 | 1022.7 |
| 20260509030146 | 57 | 255 | 2.6 | 8.7 | 0.00 | 0.00 | 0.00 | 57 | 1022.6 |
| 20260509024530 | 59 | 250 | 2.6 | 6.1 | 0.00 | 0.00 | 0.00 | 54 | 1022.5 |
| 20260509023032 | 60 | 263 | 3.5 | 7.8 | 0.00 | 0.00 | 0.00 | 51 | 1022.4 |
| 20260509021529 | 62 | 259 | 3.5 | 13.0 | 0.00 | 0.00 | 0.00 | 49 | 1022.3 |
| 20260509020030 | 62 | 250 | 4.3 | 12.2 | 0.00 | 0.00 | 0.00 | 47 | 1022.2 |
| 20260509013104 | 64 | 261 | 5.2 | 13.0 | 0.00 | 0.00 | 0.00 | 44 | 1022.1 |
| 20260509011531 | 65 | 261 | 5.2 | 15.6 | 0.00 | 0.00 | 0.00 | 42 | 1022.1 |
| 20260509010030 | 66 | 265 | 7.0 | 13.0 | 0.00 | 0.00 | 0.00 | 40 | 1022.0 |
| 20260509004530 | 67 | 274 | 7.0 | 15.6 | 0.00 | 0.00 | 0.00 | 39 | 1021.9 |
| 20260509003030 | 68 | 276 | 4.3 | 12.2 | 0.00 | 0.00 | 0.00 | 37 | 1021.9 |
| 20260509001530 | 69 | 258 | 6.1 | 18.2 | 0.00 | 0.00 | 0.00 | 35 | 1021.6 |
| 20260509000058 | 69 | 251 | 3.5 | 10.4 | 0.00 | 0.00 | 0.00 | 34 | 1021.5 |
| 20260508233030 | 69 | 246 | 5.2 | 20.9 | 0.00 | 0.00 | 0.00 | 34 | 1021.2 |
| 20260508231528 | 69 | 267 | 6.1 | 20.0 | 0.00 | 0.00 | 0.00 | 33 | 1021.2 |
| 20260508230029 | 69 | 276 | 5.2 | 14.8 | 0.00 | 0.00 | 0.00 | 32 | 1021.1 |
| 20260508224605 | 69 | 260 | 7.8 | 15.6 | 0.00 | 0.00 | 0.00 | 30 | 1021.1 |
| 20260508223030 | 69 | 264 | 7.0 | 16.5 | 0.00 | 0.00 | 0.00 | 30 | 1021.0 |
| 20260508221531 | 69 | 264 | 7.0 | 17.4 | 0.00 | 0.00 | 0.00 | 30 | 1021.0 |
| 20260508220028 | 69 | 258 | 4.3 | 14.8 | 0.00 | 0.00 | 0.00 | 31 | 1021.0 |
| 20260508214617 | 67 | 256 | 5.2 | 15.6 | 0.00 | 0.00 | 0.00 | 30 | 1021.1 |
| 20260508213103 | 66 | 243 | 7.0 | 16.5 | 0.00 | 0.00 | 0.00 | 31 | 1021.1 |
| 20260508210029 | 66 | 240 | 5.2 | 13.9 | 0.00 | 0.00 | 0.00 | 33 | 1020.9 |
| 20260508204530 | 66 | 264 | 6.1 | 13.9 | 0.00 | 0.00 | 0.00 | 34 | 1020.9 |
| 20260508201605 | 66 | 263 | 5.2 | 13.0 | 0.00 | 0.00 | 0.00 | 33 | 1020.9 |
| 20260508191529 | 65 | 273 | 7.0 | 18.2 | 0.00 | 0.00 | 0.00 | 37 | 1020.7 |
| 20260508190104 | 64 | 286 | 7.8 | 17.4 | 0.00 | 0.00 | 0.00 | 36 | 1020.6 |
| 20260508184529 | 64 | 284 | 7.8 | 17.4 | 0.00 | 0.00 | 0.00 | 37 | 1020.6 |